QPF
0.00 0.00 0.01 0.01 0.00 0.01 0.01 0.03 0.03 0.03 0.00 0.00 0.00 0.00 0.00 0.00 0.00 0.00 0.00 0.00 0.00 0.00 0.00 0.00 0.00 0.00 0.00 0.00 0.00 0.00 0.00 0.00 0.00 0.00 0.00 0.00 0.00 0.01 0.00 0.00 0.01 0.01 0.01
0.00 0.00 0.01 0.01 0.01 0.01 0.02 0.03 0.01 0.00 0.00 0.00 0.00 0.00 0.00 0.00 0.00 0.00 0.00 0.00 0.00 0.00 0.00 0.00 0.00 0.00 0.00 0.00 0.00 0.00 0.00 0.00 0.00 0.00 0.00 0.00 0.00 0.00 0.00 0.00 0.00 0.01 0.01
0.00 0.00 0.01 0.02 0.02 0.02 0.01 0.00 0.00 0.00 0.00 0.00 0.00 0.00 0.00 0.00 0.00 0.00 0.00 0.00 0.00 0.00 0.00 0.00 0.00 0.00 0.00 0.00 0.00 0.00 0.00 0.00 0.00 0.00 0.00 0.00 0.00 0.00 0.00 0.00 0.00 0.00 0.00
0.00 0.01 0.01 0.01 0.01 0.00 0.00 0.00 0.00 0.00 0.00 0.00 0.00 0.00 0.00 0.00 0.00 0.00 0.00 0.00 0.00 0.00 0.00 0.00 0.00 0.00 0.00 0.00 0.00 0.00 0.00 0.00 0.00 0.00 0.00 0.00 0.00 0.00 0.00 0.00 0.00 0.00 0.00
0.01 0.01 0.01 0.00 0.00 0.00 0.00 0.00 0.00 0.00 0.00 0.00 0.00 0.00 0.00 0.00 0.00 0.00 0.00 0.00 0.00 0.00 0.00 0.00 0.00 0.00 0.00 0.00 0.00 0.00 0.00 0.00 0.00 0.00 0.00 0.00 0.00 0.00 0.00 0.00 0.00 0.00 0.00
0.00 0.00 0.00 0.00 0.00 0.00 0.00 0.00 0.00 0.00 0.00 0.00 0.00 0.00 0.00 0.00 0.00 0.00 0.00 0.00 0.00 0.00 0.00 0.00 0.00 0.00 0.00 0.00 0.00 0.00 0.00 0.00 0.00 0.00 0.00 0.00 0.00 0.00 0.00 0.00 0.00 0.00 0.00
0.00 0.00 0.00 0.00 0.00 0.00 0.00 0.00 0.00 0.00 0.00 0.00 0.00 0.00 0.00 0.00 0.00 0.00 0.00 0.00 0.00 0.00 0.00 0.00 0.00 0.00 0.00 0.00 0.00 0.00 0.00 0.00 0.00 0.00 0.00 0.00 0.00 0.00 0.00 0.00 0.00 0.00 0.00
0.00 0.00 0.00 0.00 0.00 0.00 0.00 0.00 0.00 0.00 0.00 0.00 0.00 0.00 0.00 0.00 0.00 0.00 0.00 0.00 0.00 0.00 0.00 0.00 0.00 0.00 0.00 0.00 0.00 0.00 0.00 0.00 0.00 0.00 0.00 0.00 0.00 0.00 0.00 0.00 0.00 0.00 0.00
0.00 0.00 0.00 0.00 0.00 0.00 0.00 0.00 0.00 0.00 0.00 0.00 0.00 0.00 0.00 0.00 0.00 0.00 0.00 0.00 0.00 0.00 0.00 0.00 0.00 0.00 0.00 0.00 0.00 0.00 0.00 0.00 0.00 0.00 0.00 0.00 0.00 0.00 0.00 0.00 0.00 0.00 0.00
0.00 0.00 0.00 0.00 0.00 0.00 0.00 0.00 0.00 0.00 0.00 0.00 0.00 0.00 0.00 0.00 0.00 0.00 0.00 0.00 0.00 0.00 0.00 0.00 0.00 0.00 0.00 0.00 0.00 0.00 0.00 0.00 0.00 0.00 0.00 0.00 0.00 0.00 0.00 0.00 0.00 0.00 0.00
0.00 0.00 0.00 0.00 0.00 0.00 0.00 0.00 0.00 0.00 0.00 0.00 0.00 0.00 0.00 0.00 0.00 0.00 0.00 0.00 0.00 0.00 0.00 0.00 0.00 0.00 0.00 0.00 0.00 0.00 0.00 0.00 0.00 0.00 0.00 0.00 0.00 0.00 0.00 0.00 0.00 0.00 0.00
0.00 0.00 0.00 0.00 0.00 0.00 0.00 0.00 0.00 0.00 0.00 0.00 0.00 0.00 0.00 0.00 0.00 0.00 0.00 0.00 0.00 0.00 0.00 0.00 0.00 0.00 0.00 0.00 0.00 0.00 0.00 0.00 0.00 0.00 0.00 0.00 0.00 0.00 0.00 0.00 0.00 0.00 0.00
0.00 0.00 0.00 0.00 0.00 0.00 0.00 0.00 0.00 0.00 0.00 0.00 0.00 0.00 0.00 0.00 0.00 0.00 0.00 0.00 0.00 0.00 0.00 0.00 0.00 0.00 0.00 0.00 0.00 0.00 0.00 0.00 0.00 0.00 0.00 0.00 0.00 0.00 0.00 0.00 0.00 0.00 0.00
0.00 0.00 0.00 0.00 0.00 0.00 0.00 0.00 0.00 0.00 0.00 0.00 0.00 0.00 0.00 0.00 0.00 0.00 0.00 0.00 0.00 0.00 0.00 0.00 0.00 0.00 0.00 0.00 0.00 0.00 0.00 0.00 0.00 0.00 0.00 0.00 0.00 0.00 0.00 0.00 0.00 0.00 0.00
0.00 0.00 0.00 0.00 0.00 0.00 0.00 0.00 0.00 0.00 0.00 0.00 0.00 0.00 0.00 0.00 0.00 0.00 0.00 0.00 0.00 0.00 0.00 0.00 0.00 0.00 0.00 0.00 0.00 0.00 0.00 0.00 0.00 0.00 0.00 0.00 0.00 0.00 0.00 0.00 0.00 0.00 0.00
0.00 0.00 0.00 0.00 0.00 0.00 0.00 0.00 0.00 0.00 0.00 0.00 0.00 0.00 0.00 0.00 0.00 0.00 0.00 0.00 0.00 0.00 0.00 0.00 0.00 0.00 0.00 0.00 0.00 0.00 0.00 0.00 0.00 0.00 0.00 0.00 0.00 0.00 0.00 0.00 0.00 0.00 0.00
0.00 0.00 0.00 0.00 0.00 0.00 0.00 0.00 0.00 0.00 0.00 0.00 0.00 0.00 0.00 0.00 0.00 0.00 0.00 0.00 0.00 0.00 0.00 0.00 0.00 0.00 0.00 0.00 0.00 0.00 0.00 0.00 0.00 0.00 0.00 0.00 0.00 0.00 0.00 0.00 0.00 0.00 0.00
0.00 0.00 0.00 0.00 0.00 0.00 0.00 0.00 0.00 0.00 0.00 0.00 0.00 0.00 0.00 0.00 0.00 0.00 0.00 0.00 0.00 0.00 0.00 0.00 0.00 0.00 0.00 0.00 0.00 0.00 0.00 0.00 0.00 0.00 0.00 0.00 0.00 0.00 0.00 0.00 0.00 0.00 0.00
0.00 0.00 0.00 0.00 0.00 0.00 0.00 0.00 0.00 0.00 0.00 0.00 0.00 0.00 0.00 0.00 0.00 0.00 0.00 0.00 0.00 0.00 0.00 0.00 0.00 0.00 0.00 0.00 0.00 0.00 0.00 0.00 0.00 0.00 0.00 0.00 0.00 0.00 0.00 0.00 0.00 0.00 0.00
0.00 0.00 0.00 0.00 0.00 0.00 0.00 0.00 0.00 0.00 0.00 0.00 0.00 0.00 0.00 0.00 0.00 0.00 0.00 0.00 0.00 0.00 0.00 0.00 0.00 0.00 0.00 0.00 0.00 0.00 0.00 0.00 0.00 0.00 0.00 0.00 0.00 0.00 0.00 0.00 0.00 0.00 0.00
0.00 0.00 0.00 0.00 0.00 0.00 0.00 0.00 0.00 0.00 0.00 0.00 0.00 0.00 0.00 0.00 0.00 0.00 0.00 0.00 0.00 0.00 0.00 0.00 0.00 0.00 0.00 0.00 0.00 0.00 0.00 0.00 0.00 0.00 0.00 0.00 0.00 0.00 0.00 0.00 0.00 0.00 0.00
0.00 0.00 0.00 0.00 0.00 0.00 0.00 0.00 0.00 0.00 0.00 0.00 0.00 0.00 0.00 0.00 0.00 0.00 0.00 0.00 0.00 0.00 0.00 0.00 0.00 0.00 0.00 0.00 0.00 0.00 0.00 0.00 0.00 0.00 0.00 0.00 0.00 0.00 0.00 0.00 0.00 0.00 0.00
0.00 0.00 0.00 0.00 0.00 0.00 0.00 0.00 0.00 0.00 0.00 0.00 0.00 0.00 0.00 0.00 0.00 0.00 0.00 0.00 0.00 0.00 0.00 0.00 0.00 0.00 0.00 0.00 0.00 0.00 0.00 0.00 0.00 0.00 0.00 0.00 0.00 0.00 0.00 0.00 0.00 0.00 0.00
0.00 0.00 0.00 0.00 0.00 0.00 0.00 0.00 0.00 0.00 0.00 0.00 0.00 0.00 0.00 0.00 0.00 0.00 0.00 0.00 0.00 0.00 0.00 0.00 0.00 0.00 0.00 0.00 0.00 0.00 0.00 0.00 0.00 0.00 0.00 0.00 0.00 0.00 0.00 0.00 0.00 0.00 0.00
0.00 0.00 0.00 0.00 0.00 0.00 0.00 0.00 0.00 0.00 0.00 0.00 0.00 0.00 0.00 0.00 0.00 0.00 0.00 0.00 0.00 0.00 0.00 0.00 0.00 0.00 0.00 0.00 0.00 0.00 0.00 0.00 0.00 0.00 0.00 0.00 0.00 0.00 0.00 0.00 0.00 0.00 0.00
0.00 0.00 0.00 0.00 0.00 0.00 0.00 0.00 0.00 0.00 0.00 0.00 0.00 0.00 0.00 0.00 0.00 0.00 0.00 0.00 0.00 0.00 0.00 0.00 0.00 0.00 0.00 0.00 0.00 0.00 0.00 0.00 0.00 0.00 0.00 0.00 0.00 0.00 0.00 0.00 0.00 0.00 0.00
MSLP
1011.29 1011.71 1012.90 1013.05 1013.61 1014.02 1014.34 1014.72 1015.02 1015.42 1015.75 1016.11 1016.32 1016.55 1017.00 1017.27 1017.51 1017.65 1017.85 1018.02 1018.19 1018.33 1018.49 1018.51 1018.58 1018.38 1018.50 1018.68 1018.81 1018.98 1018.84 1018.68 1018.54 1018.32 1018.16 1017.74 1017.36 1017.32 1017.36 1017.26 1016.95 1016.77 1016.85
1010.87 1011.62 1012.71 1013.07 1013.56 1014.08 1014.37 1014.83 1015.15 1015.56 1015.97 1016.25 1016.79 1017.01 1017.41 1017.60 1017.79 1017.89 1018.05 1018.28 1018.48 1018.52 1018.72 1018.84 1018.99 1018.94 1019.03 1019.01 1019.29 1019.40 1019.31 1019.17 1018.93 1018.73 1018.33 1017.95 1017.98 1017.88 1017.83 1017.75 1017.69 1017.50 1017.32
1010.87 1011.67 1012.71 1013.10 1013.64 1014.14 1014.56 1015.01 1015.34 1015.72 1016.25 1016.57 1017.06 1017.30 1017.64 1017.86 1018.04 1018.13 1018.27 1018.46 1018.63 1018.73 1018.88 1019.05 1018.95 1019.08 1019.33 1019.56 1019.67 1019.83 1019.82 1019.66 1019.36 1018.97 1018.54 1018.10 1018.38 1018.41 1018.30 1018.16 1018.08 1018.02 1017.82
1011.09 1011.80 1012.43 1013.29 1013.76 1014.27 1014.73 1015.05 1015.51 1016.18 1016.64 1016.92 1017.19 1017.58 1017.91 1018.10 1018.29 1018.38 1018.50 1018.78 1018.99 1019.13 1019.15 1019.55 1019.31 1019.45 1019.55 1019.84 1020.05 1020.17 1020.25 1020.09 1019.73 1019.21 1018.73 1018.67 1018.51 1019.02 1018.80 1018.58 1018.57 1018.55 1018.42
1011.58 1012.01 1012.83 1013.36 1013.78 1014.46 1014.70 1015.38 1015.93 1016.53 1016.88 1017.21 1017.50 1017.90 1018.24 1018.36 1018.62 1018.85 1018.92 1019.20 1019.40 1019.52 1020.03 1019.88 1019.69 1020.07 1020.07 1020.26 1020.45 1020.59 1020.72 1020.54 1020.05 1019.48 1019.41 1019.28 1018.98 1019.46 1019.42 1019.26 1019.04 1019.08 1019.05
1012.00 1012.25 1013.20 1013.49 1013.99 1014.75 1015.24 1015.53 1016.02 1016.74 1017.10 1017.45 1017.84 1018.13 1018.62 1018.63 1018.86 1018.99 1019.27 1019.56 1019.93 1020.05 1020.36 1019.99 1019.96 1020.61 1020.53 1020.73 1020.80 1021.01 1021.21 1020.90 1020.19 1019.94 1019.93 1019.81 1019.73 1019.99 1019.88 1019.78 1019.64 1019.55 1019.48
1012.44 1012.76 1013.23 1013.79 1014.54 1015.06 1015.24 1015.84 1016.18 1016.89 1017.42 1017.56 1018.08 1018.39 1018.59 1018.88 1019.04 1019.17 1019.53 1019.88 1020.31 1020.53 1020.47 1020.27 1020.47 1020.84 1021.12 1021.12 1021.21 1021.37 1021.60 1021.30 1020.56 1020.44 1020.33 1020.28 1020.43 1020.36 1020.30 1020.19 1020.10 1020.01 1019.89
1012.88 1012.95 1013.49 1014.09 1014.80 1015.27 1015.59 1016.06 1016.59 1017.12 1017.56 1017.74 1018.22 1018.60 1018.80 1019.18 1019.48 1019.77 1019.99 1020.29 1020.59 1021.10 1020.68 1020.53 1020.93 1021.22 1021.53 1021.59 1021.67 1021.78 1021.89 1021.45 1020.98 1020.97 1020.88 1020.84 1021.07 1020.77 1020.68 1020.63 1020.63 1020.45 1020.30
1012.94 1013.17 1013.79 1014.39 1014.85 1015.49 1015.95 1016.41 1016.94 1017.14 1017.83 1018.13 1018.52 1018.69 1019.10 1019.58 1019.88 1020.05 1020.46 1020.59 1020.88 1021.34 1021.05 1021.21 1021.47 1021.65 1021.88 1022.00 1022.07 1022.12 1022.19 1021.92 1021.39 1021.58 1021.26 1021.38 1021.53 1021.14 1021.08 1021.05 1021.00 1020.82 1020.59
1013.21 1013.44 1014.00 1014.41 1014.86 1015.46 1016.08 1016.69 1017.25 1017.42 1018.05 1018.52 1018.79 1019.20 1019.60 1020.02 1020.28 1020.64 1020.94 1021.31 1021.45 1021.72 1021.68 1021.76 1021.92 1021.94 1022.41 1022.37 1022.40 1022.51 1022.33 1022.14 1021.91 1021.94 1021.90 1022.19 1021.88 1021.59 1021.49 1021.40 1021.38 1021.20 1020.96
1013.22 1013.27 1013.68 1014.36 1014.88 1015.12 1015.95 1016.76 1017.48 1017.79 1018.37 1018.79 1019.29 1019.83 1019.91 1020.32 1020.83 1021.04 1021.59 1022.01 1021.69 1021.94 1021.94 1022.28 1022.64 1021.88 1022.91 1022.80 1022.79 1022.71 1022.33 1022.35 1022.43 1022.37 1022.47 1022.84 1022.32 1022.01 1021.93 1021.92 1021.82 1021.69 1021.52
1012.67 1013.10 1013.58 1014.09 1014.73 1015.09 1015.86 1016.81 1017.38 1017.97 1018.44 1018.88 1019.65 1020.12 1020.21 1020.59 1020.96 1021.50 1022.17 1022.64 1022.13 1022.60 1022.57 1022.87 1023.09 1022.48 1022.43 1022.41 1022.55 1022.66 1022.60 1022.69 1022.84 1022.83 1023.13 1023.18 1022.60 1022.37 1022.35 1022.22 1022.11 1021.99 1021.80
1012.23 1013.01 1013.46 1014.02 1014.70 1015.27 1015.69 1016.42 1017.19 1018.02 1018.49 1019.33 1019.98 1020.24 1020.40 1020.96 1021.62 1021.98 1022.63 1022.83 1022.60 1023.07 1022.56 1022.65 1023.03 1022.67 1022.56 1022.68 1022.74 1022.85 1023.02 1023.03 1023.19 1023.39 1023.87 1023.52 1023.19 1023.03 1022.67 1022.47 1022.42 1022.34 1022.20
1011.85 1012.68 1013.29 1013.82 1014.66 1015.17 1015.84 1016.58 1017.48 1018.18 1018.92 1019.38 1020.16 1020.53 1020.61 1021.28 1021.73 1022.15 1022.20 1022.62 1022.79 1023.07 1022.99 1022.69 1023.01 1023.19 1023.02 1023.16 1023.10 1023.10 1023.26 1023.36 1023.53 1023.79 1024.14 1024.09 1023.88 1023.56 1023.01 1022.87 1022.78 1022.62 1022.38
1011.87 1012.33 1013.11 1013.68 1014.23 1014.92 1015.82 1016.40 1017.26 1017.89 1018.63 1019.37 1020.03 1020.59 1020.52 1021.14 1021.47 1022.01 1022.07 1022.31 1022.72 1023.41 1023.25 1023.09 1023.05 1023.13 1023.21 1023.33 1023.41 1023.30 1023.55 1023.70 1024.02 1024.10 1024.21 1024.63 1024.44 1024.11 1023.52 1023.27 1023.17 1022.95 1022.60
1011.28 1011.77 1012.53 1013.29 1013.83 1014.64 1015.45 1016.42 1016.89 1017.67 1018.39 1019.55 1019.82 1020.39 1020.68 1021.06 1021.51 1021.78 1022.31 1022.66 1022.94 1023.43 1023.61 1023.38 1023.23 1023.25 1023.36 1023.39 1023.44 1023.61 1023.81 1024.00 1024.29 1024.46 1024.45 1024.51 1024.83 1024.46 1023.99 1023.61 1023.45 1023.16 1022.79
1009.87 1011.13 1011.82 1012.66 1013.44 1014.29 1015.16 1015.91 1016.85 1017.56 1018.46 1019.03 1019.52 1020.23 1020.63 1021.05 1021.27 1021.69 1022.30 1022.97 1023.19 1023.45 1024.05 1023.56 1023.58 1023.44 1023.29 1023.31 1023.41 1023.63 1023.81 1024.11 1024.32 1024.54 1024.56 1024.55 1024.46 1024.67 1024.41 1024.00 1023.76 1023.40 1023.09
1009.98 1010.46 1011.38 1012.18 1013.04 1013.83 1014.58 1015.63 1016.73 1017.50 1018.16 1018.92 1019.52 1019.81 1020.57 1020.71 1020.93 1021.85 1022.08 1022.86 1023.39 1023.61 1023.81 1023.43 1023.44 1023.25 1023.20 1023.14 1023.17 1023.19 1023.40 1023.94 1024.37 1024.49 1024.51 1024.44 1024.40 1024.24 1024.13 1024.22 1023.84 1023.47 1023.18
1008.94 1010.07 1010.88 1011.81 1012.30 1013.26 1014.49 1015.66 1016.65 1017.35 1018.00 1018.78 1019.30 1019.96 1020.39 1020.47 1020.86 1021.74 1022.38 1022.80 1023.17 1023.71 1023.63 1023.44 1023.62 1023.31 1023.16 1023.08 1023.14 1023.04 1023.35 1023.61 1024.12 1024.21 1024.23 1024.38 1024.40 1024.32 1024.07 1023.89 1023.69 1023.41 1023.17
1008.82 1009.85 1010.71 1011.58 1012.11 1013.20 1014.38 1015.51 1016.41 1017.49 1017.74 1018.52 1019.31 1019.80 1020.10 1020.49 1020.91 1021.60 1022.23 1022.85 1023.20 1023.61 1023.58 1023.61 1023.55 1023.57 1023.42 1023.35 1023.14 1022.98 1023.19 1023.55 1023.90 1023.78 1023.92 1024.19 1024.21 1024.14 1023.93 1023.81 1023.53 1023.12 1023.04
1008.27 1009.06 1009.82 1010.66 1011.58 1012.63 1013.52 1014.60 1015.60 1016.21 1017.16 1018.47 1018.97 1019.44 1019.82 1020.48 1020.91 1021.55 1022.00 1022.74 1023.17 1023.33 1023.46 1023.62 1023.61 1023.42 1023.41 1023.46 1022.78 1022.45 1022.78 1023.31 1023.46 1023.52 1023.66 1023.73 1023.89 1023.91 1023.91 1023.72 1023.48 1023.16 1022.77
1006.72 1007.77 1008.87 1009.76 1010.70 1011.43 1012.48 1013.44 1014.40 1015.44 1016.89 1018.04 1018.75 1019.12 1019.40 1020.18 1020.99 1021.51 1022.00 1022.59 1023.01 1023.36 1023.67 1023.76 1023.61 1023.42 1023.55 1023.82 1023.25 1022.94 1022.44 1022.90 1023.13 1023.21 1023.48 1023.73 1023.83 1023.79 1023.65 1023.43 1023.32 1023.11 1022.76
1005.32 1006.80 1007.72 1008.49 1009.51 1010.39 1011.63 1013.01 1014.09 1015.47 1016.94 1017.67 1018.20 1018.73 1019.10 1019.86 1021.00 1021.28 1021.93 1022.40 1023.02 1023.24 1023.53 1023.77 1023.61 1023.08 1023.12 1024.07 1024.11 1023.64 1023.22 1022.91 1023.31 1023.05 1023.40 1023.68 1023.78 1023.68 1023.38 1023.13 1022.85 1022.61 1022.39
1004.06 1005.29 1006.48 1007.50 1008.67 1009.91 1010.73 1011.69 1012.30 1013.20 1014.54 1015.76 1017.00 1017.91 1018.87 1019.52 1020.81 1021.24 1021.86 1022.40 1022.92 1023.20 1023.49 1023.77 1023.71 1023.36 1023.20 1023.60 1024.36 1024.58 1024.60 1024.72 1024.17 1023.01 1023.07 1023.26 1023.63 1023.32 1023.16 1022.83 1022.45 1022.09 1021.98
1002.80 1003.93 1005.32 1006.52 1007.78 1008.77 1009.59 1010.33 1011.48 1012.70 1013.75 1014.95 1016.52 1017.57 1018.60 1019.33 1020.41 1021.17 1021.76 1022.36 1022.85 1023.10 1023.45 1023.71 1023.76 1023.63 1023.62 1023.71 1024.03 1024.51 1024.97 1025.09 1025.25 1024.96 1023.50 1022.76 1023.09 1022.73 1022.76 1022.46 1022.00 1021.57 1021.38
1002.03 1003.14 1004.45 1005.44 1006.42 1007.39 1008.38 1009.44 1010.43 1011.26 1012.42 1013.95 1015.27 1016.65 1017.72 1018.89 1019.88 1020.86 1021.49 1022.12 1022.66 1023.01 1023.52 1023.80 1023.75 1023.85 1023.83 1024.07 1024.35 1024.62 1024.70 1024.85 1024.95 1025.22 1024.71 1023.92 1023.46 1022.42 1022.25 1021.88 1021.50 1021.16 1020.88
Thickness
5724 5723 5716 5719 5715 5714 5714 5712 5712 5710 5708 5706 5706 5706 5702 5702 5702 5702 5700 5699 5698 5696 5694 5693 5693 5696 5694 5693 5691 5689 5691 5692 5693 5695 5695 5698 5699 5699 5699 5700 5701 5701 5700
5725 5720 5715 5715 5713 5710 5712 5710 5710 5707 5705 5704 5701 5702 5698 5699 5699 5699 5697 5696 5694 5694 5692 5690 5689 5688 5688 5688 5686 5684 5685 5687 5689 5689 5691 5693 5692 5692 5693 5694 5694 5695 5696
5722 5718 5712 5712 5709 5707 5706 5706 5706 5704 5701 5702 5698 5698 5696 5696 5696 5696 5695 5694 5692 5692 5691 5690 5691 5688 5685 5682 5681 5679 5679 5681 5683 5685 5686 5688 5685 5685 5686 5688 5688 5689 5690
5716 5713 5711 5708 5706 5704 5702 5703 5701 5697 5695 5696 5695 5694 5693 5692 5692 5692 5692 5690 5688 5687 5688 5684 5686 5684 5682 5679 5676 5673 5673 5674 5677 5680 5681 5680 5681 5678 5679 5681 5682 5682 5683
5708 5709 5704 5704 5704 5699 5701 5698 5695 5691 5691 5691 5691 5689 5687 5688 5686 5685 5686 5684 5683 5683 5678 5679 5681 5676 5675 5673 5670 5668 5667 5668 5671 5674 5673 5673 5675 5671 5672 5673 5675 5675 5676
5700 5703 5699 5699 5698 5693 5693 5694 5692 5687 5687 5687 5686 5685 5681 5684 5682 5683 5681 5680 5677 5678 5675 5678 5678 5671 5671 5667 5666 5663 5660 5662 5666 5667 5666 5666 5666 5664 5665 5666 5667 5669 5669
5693 5695 5694 5694 5688 5687 5690 5687 5689 5685 5682 5684 5682 5680 5681 5679 5680 5680 5678 5676 5672 5672 5672 5674 5671 5667 5664 5662 5661 5658 5656 5657 5660 5660 5660 5660 5658 5658 5657 5658 5659 5661 5662
5685 5690 5688 5686 5682 5681 5683 5681 5681 5680 5679 5681 5678 5676 5676 5674 5673 5672 5672 5671 5669 5664 5668 5669 5665 5662 5658 5656 5655 5653 5651 5653 5654 5653 5653 5652 5650 5651 5651 5650 5651 5652 5654
5678 5683 5680 5678 5679 5676 5675 5674 5674 5677 5674 5674 5672 5673 5670 5668 5668 5667 5665 5666 5665 5661 5663 5661 5658 5656 5653 5651 5649 5648 5647 5647 5648 5646 5646 5644 5642 5644 5643 5643 5643 5644 5646
5674 5675 5674 5675 5673 5671 5670 5669 5667 5671 5668 5666 5667 5665 5663 5661 5661 5659 5658 5656 5657 5655 5655 5654 5652 5651 5645 5646 5644 5642 5642 5642 5641 5640 5638 5634 5635 5636 5636 5635 5634 5635 5637
5668 5673 5672 5669 5669 5670 5667 5665 5663 5665 5661 5661 5660 5657 5657 5655 5652 5651 5649 5647 5652 5650 5650 5647 5643 5652 5639 5640 5639 5638 5638 5636 5633 5632 5629 5625 5627 5628 5627 5627 5626 5626 5627
5665 5667 5669 5666 5664 5666 5664 5661 5658 5657 5656 5657 5654 5650 5651 5650 5648 5646 5642 5640 5645 5641 5641 5638 5635 5642 5639 5637 5635 5633 5631 5629 5625 5624 5619 5617 5619 5619 5619 5619 5619 5619 5620
5664 5663 5664 5663 5661 5660 5661 5659 5655 5651 5653 5650 5646 5646 5647 5644 5640 5638 5635 5633 5637 5632 5636 5635 5629 5633 5634 5631 5629 5626 5623 5622 5618 5614 5608 5608 5609 5609 5610 5611 5610 5610 5610
5661 5658 5659 5660 5657 5657 5655 5653 5648 5647 5646 5645 5640 5641 5642 5638 5635 5632 5634 5631 5629 5626 5628 5630 5626 5624 5626 5623 5621 5620 5617 5614 5610 5605 5599 5598 5598 5599 5602 5602 5601 5602 5602
5655 5657 5656 5657 5657 5655 5651 5650 5647 5646 5643 5639 5638 5635 5638 5634 5633 5629 5631 5628 5624 5617 5619 5621 5621 5620 5618 5617 5615 5613 5610 5606 5601 5597 5594 5590 5589 5590 5593 5594 5594 5594 5596
5654 5658 5657 5655 5655 5652 5650 5644 5644 5641 5640 5634 5635 5633 5633 5629 5629 5628 5624 5620 5618 5614 5612 5614 5614 5614 5612 5611 5609 5606 5603 5599 5594 5589 5586 5584 5582 5583 5585 5587 5587 5588 5589
5662 5656 5656 5654 5652 5649 5646 5643 5639 5638 5635 5633 5632 5630 5628 5627 5626 5623 5619 5611 5611 5609 5603 5607 5606 5607 5607 5606 5604 5601 5597 5592 5587 5583 5580 5578 5578 5577 5578 5579 5579 5580 5580
5654 5657 5655 5653 5650 5647 5646 5639 5635 5634 5632 5628 5627 5627 5624 5624 5623 5615 5615 5607 5603 5601 5598 5601 5600 5602 5602 5601 5600 5597 5593 5587 5580 5577 5574 5573 5571 5572 5572 5570 5570 5571 5572
5656 5652 5650 5648 5649 5646 5640 5634 5630 5630 5628 5624 5622 5620 5619 5619 5619 5610 5604 5602 5600 5594 5594 5595 5593 5596 5596 5595 5593 5592 5587 5582 5575 5572 5569 5566 5565 5563 5562 5562 5562 5563 5562
5647 5645 5643 5641 5644 5640 5634 5629 5627 5623 5624 5620 5615 5614 5613 5612 5612 5606 5600 5595 5593 5589 5589 5588 5588 5587 5586 5585 5586 5585 5581 5575 5569 5566 5563 5559 5556 5554 5554 5552 5553 5554 5552
5643 5644 5644 5644 5642 5639 5638 5633 5629 5627 5622 5613 5611 5610 5609 5606 5605 5599 5595 5589 5588 5585 5583 5581 5581 5582 5580 5577 5583 5584 5577 5569 5564 5560 5556 5552 5548 5545 5542 5541 5541 5541 5541
5652 5649 5644 5645 5643 5643 5639 5634 5630 5625 5615 5607 5606 5607 5607 5602 5595 5591 5587 5583 5581 5578 5574 5573 5574 5574 5571 5567 5571 5571 5579 5569 5560 5555 5549 5544 5539 5535 5533 5531 5529 5528 5528
5656 5649 5647 5649 5647 5644 5637 5629 5625 5618 5608 5606 5607 5603 5602 5595 5586 5585 5580 5577 5573 5571 5568 5566 5566 5570 5569 5557 5555 5559 5568 5569 5552 5549 5542 5535 5530 5526 5524 5522 5521 5518 5515
5661 5656 5651 5648 5645 5638 5634 5632 5633 5628 5619 5614 5605 5599 5593 5589 5579 5577 5572 5568 5565 5563 5561 5558 5557 5559 5559 5555 5545 5540 5537 5533 5540 5548 5540 5533 5522 5519 5513 5511 5511 5508 5502
5661 5660 5653 5648 5642 5638 5637 5636 5630 5623 5619 5613 5601 5594 5586 5582 5574 5569 5564 5560 5557 5556 5553 5551 5549 5548 5547 5545 5541 5533 5524 5520 5516 5516 5527 5529 5518 5514 5506 5500 5498 5496 5491
5657 5656 5651 5648 5645 5643 5639 5635 5631 5629 5623 5612 5604 5593 5584 5576 5570 5562 5557 5553 5550 5549 5544 5541 5540 5538 5536 5532 5528 5522 5519 5516 5512 5504 5505 5508 5504 5507 5500 5494 5488 5483 5480